Hourly Weather Godziejewo

Today, 18 May, Tuesday

Time Temperature Precipitation Wind Pressure Humidity
00:00 +12°C° 0 mm 2 mps 737 mmHg 91%
01:00 +12°C° 0 mm 2 mps 737 mmHg 92%
02:00 +12°C° 0 mm 2 mps 737 mmHg 92%
03:00 +10°C° 0 mm 2 mps 737 mmHg 93%
04:00 +10°C° 0 mm 2 mps 737 mmHg 93%
05:00 +10°C° 0 mm 2 mps 736 mmHg 93%
06:00 +12°C° 0 mm 2 mps 737 mmHg 87%
07:00 +13°C° 0 mm 2 mps 737 mmHg 81%
08:00 +15°C° 0 mm 2 mps 737 mmHg 74%
09:00 +16°C° 0 mm 3 mps 737 mmHg 70%
10:00 +17°C° 0 mm 3 mps 737 mmHg 66%
11:00 +18°C° 0 mm 3 mps 737 mmHg 61%
12:00 +18°C° 0 mm 4 mps 737 mmHg 59%
13:00 +19°C° 0 mm 4 mps 736 mmHg 57%
14:00 +19°C° 0 mm 4 mps 736 mmHg 54%
15:00 +19°C° 0 mm 4 mps 736 mmHg 57%
16:00 +19°C° 0 mm 3 mps 736 mmHg 60%
17:00 +18°C° 0 mm 3 mps 736 mmHg 63%
18:00 +17°C° 0.1 mm 3 mps 736 mmHg 71%
19:00 +14°C° 0.1 mm 3 mps 736 mmHg 78%
20:00 +13°C° 0.1 mm 3 mps 737 mmHg 86%
21:00 +12°C° 0 mm 3 mps 737 mmHg 90%
22:00 +11°C° 0 mm 4 mps 737 mmHg 93%
23:00 +10°C° 0 mm 4 mps 737 mmHg 96%

Tomorrow, 19 May, Wednesday

Time Temperature Precipitation Wind Pressure Humidity
00:00 +8°C° 0 mm 4 mps 737 mmHg 96%
01:00 +8°C° 0 mm 4 mps 737 mmHg 96%
02:00 +7°C° 0 mm 4 mps 737 mmHg 95%
03:00 +7°C° 0 mm 4 mps 738 mmHg 95%
04:00 +7°C° 0 mm 4 mps 738 mmHg 94%
05:00 +7°C° 0 mm 4 mps 738 mmHg 94%
06:00 +8°C° 0.3 mm 4 mps 738 mmHg 93%
07:00 +8°C° 0.3 mm 4 mps 739 mmHg 92%
08:00 +8°C° 0.3 mm 4 mps 739 mmHg 91%
09:00 +10°C° 0.1 mm 4 mps 739 mmHg 90%
10:00 +10°C° 0.1 mm 4 mps 740 mmHg 89%
11:00 +10°C° 0.1 mm 4 mps 740 mmHg 88%
12:00 +11°C° 0.1 mm 4 mps 740 mmHg 83%
13:00 +13°C° 0.1 mm 4 mps 740 mmHg 78%
14:00 +14°C° 0.1 mm 4 mps 741 mmHg 73%
15:00 +14°C° 0.2 mm 4 mps 741 mmHg 73%
16:00 +14°C° 0.2 mm 4 mps 741 mmHg 74%
17:00 +14°C° 0.2 mm 5 mps 741 mmHg 75%
18:00 +13°C° 0.1 mm 4 mps 741 mmHg 80%
19:00 +11°C° 0.1 mm 4 mps 742 mmHg 85%
20:00 +10°C° 0.1 mm 3 mps 742 mmHg 90%
21:00 +9°C° 0 mm 3 mps 742 mmHg 92%
22:00 +8°C° 0 mm 3 mps 743 mmHg 95%
23:00 +7°C° 0 mm 3 mps 743 mmHg 97%

Day after tomorrow, 20 May, Thursday

Time Temperature Precipitation Wind Pressure Humidity
00:00 +5°C° 0 mm 3 mps 743 mmHg 96%
01:00 +5°C° 0 mm 3 mps 743 mmHg 96%
02:00 +5°C° 0 mm 2 mps 743 mmHg 95%
03:00 +5°C° 0 mm 2 mps 743 mmHg 95%
04:00 +4°C° 0 mm 2 mps 743 mmHg 94%
05:00 +4°C° 0 mm 2 mps 743 mmHg 93%
06:00 +5°C° 0 mm 3 mps 744 mmHg 88%
07:00 +8°C° 0 mm 3 mps 744 mmHg 82%
08:00 +10°C° 0 mm 3 mps 744 mmHg 77%
09:00 +11°C° 0 mm 4 mps 744 mmHg 72%
10:00 +13°C° 0 mm 5 mps 744 mmHg 67%
11:00 +14°C° 0 mm 6 mps 744 mmHg 63%
12:00 +15°C° 0 mm 6 mps 744 mmHg 60%
13:00 +15°C° 0 mm 6 mps 744 mmHg 58%
14:00 +15°C° 0 mm 7 mps 744 mmHg 56%
15:00 +15°C° 0 mm 6 mps 744 mmHg 58%
16:00 +14°C° 0 mm 6 mps 744 mmHg 61%
17:00 +14°C° 0 mm 6 mps 744 mmHg 63%
18:00 +11°C° 0 mm 6 mps 744 mmHg 69%
19:00 +10°C° 0 mm 6 mps 744 mmHg 74%
20:00 +9°C° 0 mm 6 mps 744 mmHg 79%
21:00 +7°C° 0 mm 6 mps 745 mmHg 81%
22:00 +6°C° 0 mm 5 mps 745 mmHg 83%
23:00 +5°C° 0 mm 5 mps 745 mmHg 86%

21 May, Friday

Time Temperature Precipitation Wind Pressure Humidity
00:00 +3°C° 0 mm 5 mps 745 mmHg 88%
01:00 +4°C° 0 mm 4 mps 745 mmHg 91%
02:00 +3°C° 0 mm 4 mps 745 mmHg 94%
03:00 +3°C° 0 mm 4 mps 745 mmHg 94%
04:00 +3°C° 0 mm 4 mps 745 mmHg 94%
05:00 +2°C° 0 mm 5 mps 745 mmHg 95%
06:00 +3°C° 0 mm 5 mps 745 mmHg 88%
07:00 +6°C° 0 mm 5 mps 745 mmHg 82%
08:00 +8°C° 0 mm 6 mps 745 mmHg 75%
09:00 +9°C° 0 mm 6 mps 745 mmHg 70%
10:00 +9°C° 0 mm 5 mps 745 mmHg 66%
11:00 +10°C° 0 mm 5 mps 745 mmHg 61%
12:00 +10°C° 0 mm 5 mps 745 mmHg 62%
13:00 +10°C° 0 mm 5 mps 745 mmHg 63%
14:00 +11°C° 0 mm 4 mps 745 mmHg 63%
15:00 +11°C° 0 mm 4 mps 745 mmHg 61%
16:00 +11°C° 0 mm 4 mps 745 mmHg 59%
17:00 +12°C° 0 mm 4 mps 745 mmHg 56%
18:00 +10°C° 0 mm 3 mps 745 mmHg 62%
19:00 +9°C° 0 mm 2 mps 745 mmHg 68%
20:00 +9°C° 0 mm 1 mps 744 mmHg 74%
21:00 +8°C° 0 mm 1 mps 744 mmHg 77%
22:00 +6°C° 0 mm 2 mps 744 mmHg 80%
23:00 +5°C° 0 mm 2 mps 744 mmHg 83%

22 May, Saturday

Time Temperature Precipitation Wind Pressure Humidity
00:00 +4°C° 0 mm 3 mps 744 mmHg 85%
01:00 +3°C° 0 mm 3 mps 744 mmHg 86%
02:00 +3°C° 0 mm 3 mps 744 mmHg 88%
03:00 +3°C° 0 mm 3 mps 744 mmHg 86%
04:00 +4°C° 0 mm 3 mps 743 mmHg 84%
05:00 +5°C° 0 mm 2 mps 743 mmHg 82%
06:00 +6°C° 0.1 mm 2 mps 743 mmHg 83%
07:00 +8°C° 0.1 mm 3 mps 743 mmHg 84%
08:00 +9°C° 0.1 mm 3 mps 743 mmHg 85%
09:00 +10°C° 0 mm 3 mps 743 mmHg 82%
10:00 +11°C° 0 mm 4 mps 743 mmHg 78%
11:00 +13°C° 0 mm 5 mps 743 mmHg 75%
12:00 +14°C° 0.1 mm 5 mps 742 mmHg 69%
13:00 +16°C° 0.1 mm 6 mps 742 mmHg 63%
14:00 +17°C° 0.1 mm 6 mps 742 mmHg 57%
15:00 +17°C° 0.2 mm 6 mps 742 mmHg 61%
16:00 +17°C° 0.2 mm 5 mps 741 mmHg 65%
17:00 +16°C° 0.2 mm 5 mps 741 mmHg 69%
18:00 +15°C° 0.2 mm 5 mps 741 mmHg 74%
19:00 +14°C° 0.2 mm 4 mps 741 mmHg 78%
20:00 +13°C° 0.2 mm 4 mps 741 mmHg 83%
21:00 +12°C° 1.4 mm 4 mps 741 mmHg 87%
22:00 +12°C° 1.4 mm 4 mps 742 mmHg 91%
23:00 +11°C° 1.4 mm 4 mps 742 mmHg 96%

23 May, Sunday

Time Temperature Precipitation Wind Pressure Humidity
00:00 +11°C° 0.6 mm 3 mps 742 mmHg 96%
01:00 +10°C° 0.6 mm 2 mps 742 mmHg 96%
02:00 +10°C° 0.6 mm 2 mps 742 mmHg 97%
03:00 +10°C° 0.3 mm 2 mps 742 mmHg 97%
04:00 +11°C° 0.3 mm 1 mps 742 mmHg 97%
05:00 +11°C° 0.3 mm 1 mps 742 mmHg 98%
06:00 +11°C° 1.3 mm 1 mps 742 mmHg 97%
07:00 +11°C° 1.3 mm 1 mps 742 mmHg 96%
08:00 +11°C° 1.3 mm 1 mps 742 mmHg 95%
09:00 +11°C° 1.4 mm 1 mps 742 mmHg 93%
10:00 +12°C° 1.4 mm 1 mps 742 mmHg 92%
11:00 +12°C° 1.4 mm 2 mps 742 mmHg 90%
12:00 +13°C° 0.4 mm 2 mps 742 mmHg 84%
13:00 +14°C° 0.4 mm 2 mps 742 mmHg 78%
14:00 +15°C° 0.4 mm 2 mps 743 mmHg 72%
15:00 +16°C° 0.2 mm 2 mps 743 mmHg 68%
16:00 +16°C° 0.2 mm 2 mps 743 mmHg 65%
17:00 +17°C° 0.2 mm 2 mps 743 mmHg 61%
18:00 +15°C° 0.2 mm 2 mps 743 mmHg 68%
19:00 +14°C° 0.2 mm 2 mps 743 mmHg 76%
20:00 +12°C° 0.2 mm 2 mps 744 mmHg 83%
21:00 +12°C° 0 mm 2 mps 744 mmHg 86%
22:00 +10°C° 0 mm 2 mps 744 mmHg 89%
23:00 +9°C° 0 mm 2 mps 745 mmHg 92%
Show more